When you browse on this site, cookies collect data to enhance your experience and personalize the content and advertising you see.
Visit our Privacy Policy to learn more. By continuing to use the site, you agree to this use of cookies and data.

Hourly Weather Santiago de Querétaro

Today, 28 September, Monday

Time Temperature Precipitation Wind Pressure Humidity
00:00 +18°C° 0 mm 1 mps 605 mmHg 54%
01:00 +16°C° 0 mm 1 mps 605 mmHg 57%
02:00 +15°C° 0 mm 0 mps 605 mmHg 59%
03:00 +15°C° 0 mm 0 mps 604 mmHg 60%
04:00 +14°C° 0 mm 0 mps 604 mmHg 61%
05:00 +14°C° 0 mm 0 mps 604 mmHg 62%
06:00 +16°C° 0 mm 0 mps 605 mmHg 56%
07:00 +20°C° 0 mm 1 mps 607 mmHg 50%
08:00 +22°C° 0 mm 1 mps 608 mmHg 44%
09:00 +24°C° 0 mm 2 mps 608 mmHg 38%
10:00 +26°C° 0 mm 3 mps 609 mmHg 31%
11:00 +28°C° 0 mm 5 mps 609 mmHg 25%
12:00 +28°C° 0 mm 5 mps 609 mmHg 24%
13:00 +28°C° 0 mm 6 mps 608 mmHg 23%
14:00 +28°C° 0 mm 7 mps 608 mmHg 22%
15:00 +27°C° 0 mm 6 mps 607 mmHg 27%
16:00 +24°C° 0 mm 6 mps 607 mmHg 33%
17:00 +22°C° 0 mm 5 mps 606 mmHg 38%
18:00 +21°C° 0 mm 5 mps 607 mmHg 47%
19:00 +19°C° 0 mm 5 mps 607 mmHg 56%
20:00 +17°C° 0 mm 4 mps 608 mmHg 64%
21:00 +17°C° 0 mm 4 mps 608 mmHg 71%
22:00 +16°C° 0 mm 3 mps 608 mmHg 78%
23:00 +16°C° 0 mm 2 mps 608 mmHg 85%

Tomorrow, 29 September, Tuesday

Time Temperature Precipitation Wind Pressure Humidity
00:00 +16°C° 0 mm 2 mps 608 mmHg 84%
01:00 +16°C° 0 mm 3 mps 608 mmHg 83%
02:00 +16°C° 0 mm 3 mps 608 mmHg 81%
03:00 +16°C° 0 mm 3 mps 608 mmHg 81%
04:00 +16°C° 0 mm 3 mps 608 mmHg 80%
05:00 +15°C° 0 mm 4 mps 608 mmHg 80%
06:00 +15°C° 0 mm 4 mps 609 mmHg 78%
07:00 +15°C° 0 mm 4 mps 610 mmHg 76%
08:00 +15°C° 0 mm 4 mps 610 mmHg 75%
09:00 +16°C° 0 mm 5 mps 610 mmHg 72%
10:00 +17°C° 0 mm 5 mps 610 mmHg 68%
11:00 +17°C° 0 mm 6 mps 610 mmHg 65%
12:00 +17°C° 0 mm 6 mps 609 mmHg 64%
13:00 +17°C° 0 mm 6 mps 609 mmHg 63%
14:00 +17°C° 0 mm 6 mps 608 mmHg 61%
15:00 +17°C° 0 mm 6 mps 608 mmHg 63%
16:00 +16°C° 0 mm 6 mps 608 mmHg 65%
17:00 +15°C° 0 mm 5 mps 608 mmHg 67%
18:00 +14°C° 0 mm 5 mps 608 mmHg 69%
19:00 +13°C° 0 mm 5 mps 609 mmHg 72%
20:00 +12°C° 0 mm 4 mps 609 mmHg 74%
21:00 +11°C° 0 mm 4 mps 609 mmHg 76%
22:00 +11°C° 0 mm 3 mps 608 mmHg 79%
23:00 +10°C° 0 mm 3 mps 608 mmHg 81%

Day after tomorrow, 30 September, Wednesday

Time Temperature Precipitation Wind Pressure Humidity
00:00 +9°C° 0 mm 2 mps 608 mmHg 82%
01:00 +9°C° 0 mm 2 mps 607 mmHg 84%
02:00 +9°C° 0 mm 2 mps 607 mmHg 85%
03:00 +8°C° 0 mm 2 mps 607 mmHg 85%
04:00 +8°C° 0 mm 2 mps 607 mmHg 85%
05:00 +8°C° 0 mm 2 mps 607 mmHg 85%
06:00 +10°C° 0 mm 2 mps 608 mmHg 77%
07:00 +11°C° 0 mm 3 mps 609 mmHg 68%
08:00 +13°C° 0 mm 3 mps 610 mmHg 60%
09:00 +16°C° 0 mm 3 mps 610 mmHg 53%
10:00 +19°C° 0 mm 4 mps 610 mmHg 46%
11:00 +21°C° 0 mm 4 mps 610 mmHg 39%
12:00 +22°C° 0 mm 4 mps 610 mmHg 36%
13:00 +23°C° 0 mm 4 mps 610 mmHg 33%
14:00 +23°C° 0 mm 4 mps 609 mmHg 30%
15:00 +22°C° 0 mm 4 mps 609 mmHg 34%
16:00 +21°C° 0 mm 4 mps 609 mmHg 38%
17:00 +19°C° 0 mm 4 mps 608 mmHg 42%
18:00 +17°C° 0 mm 3 mps 608 mmHg 45%
19:00 +14°C° 0 mm 3 mps 608 mmHg 49%
20:00 +12°C° 0 mm 3 mps 608 mmHg 53%
21:00 +12°C° 0 mm 2 mps 607 mmHg 57%
22:00 +12°C° 0 mm 2 mps 607 mmHg 61%
23:00 +10°C° 0 mm 2 mps 607 mmHg 65%

1 October, Thursday

Time Temperature Precipitation Wind Pressure Humidity
00:00 +9°C° 0 mm 2 mps 607 mmHg 68%
01:00 +9°C° 0 mm 2 mps 606 mmHg 70%
02:00 +8°C° 0 mm 2 mps 606 mmHg 73%
03:00 +8°C° 0 mm 2 mps 605 mmHg 73%
04:00 +8°C° 0 mm 1 mps 605 mmHg 73%
05:00 +8°C° 0 mm 1 mps 605 mmHg 73%
06:00 +9°C° 0 mm 2 mps 606 mmHg 62%
07:00 +12°C° 0 mm 2 mps 608 mmHg 52%
08:00 +15°C° 0 mm 2 mps 609 mmHg 42%
09:00 +17°C° 0 mm 3 mps 609 mmHg 35%
10:00 +19°C° 0 mm 3 mps 610 mmHg 28%
11:00 +21°C° 0 mm 3 mps 610 mmHg 22%
12:00 +22°C° 0 mm 4 mps 610 mmHg 21%
13:00 +23°C° 0 mm 4 mps 609 mmHg 21%
14:00 +25°C° 0 mm 4 mps 609 mmHg 20%
15:00 +22°C° 0 mm 4 mps 608 mmHg 25%
16:00 +20°C° 0 mm 4 mps 608 mmHg 30%
17:00 +19°C° 0 mm 4 mps 608 mmHg 35%
18:00 +17°C° 0 mm 4 mps 608 mmHg 38%
19:00 +14°C° 0 mm 3 mps 608 mmHg 42%
20:00 +12°C° 0 mm 3 mps 608 mmHg 45%
21:00 +12°C° 0 mm 2 mps 607 mmHg 50%
22:00 +10°C° 0 mm 2 mps 607 mmHg 54%
23:00 +9°C° 0 mm 2 mps 607 mmHg 58%

2 October, Friday

Time Temperature Precipitation Wind Pressure Humidity
00:00 +9°C° 0 mm 2 mps 607 mmHg 60%
01:00 +8°C° 0 mm 2 mps 606 mmHg 62%
02:00 +8°C° 0 mm 2 mps 606 mmHg 65%
03:00 +8°C° 0 mm 2 mps 606 mmHg 64%
04:00 +7°C° 0 mm 2 mps 606 mmHg 64%
05:00 +7°C° 0 mm 2 mps 606 mmHg 64%
06:00 +9°C° 0 mm 2 mps 607 mmHg 57%
07:00 +11°C° 0 mm 3 mps 608 mmHg 49%
08:00 +14°C° 0 mm 3 mps 609 mmHg 42%
09:00 +17°C° 0 mm 3 mps 609 mmHg 37%
10:00 +19°C° 0 mm 4 mps 610 mmHg 31%
11:00 +21°C° 0 mm 5 mps 610 mmHg 26%
12:00 +22°C° 0 mm 5 mps 610 mmHg 25%
13:00 +22°C° 0 mm 5 mps 609 mmHg 25%
14:00 +23°C° 0 mm 5 mps 609 mmHg 24%
15:00 +21°C° 0 mm 5 mps 608 mmHg 29%
16:00 +20°C° 0 mm 5 mps 608 mmHg 34%
17:00 +18°C° 0 mm 4 mps 608 mmHg 39%
18:00 +15°C° 0 mm 4 mps 607 mmHg 46%
19:00 +13°C° 0 mm 3 mps 607 mmHg 53%
20:00 +11°C° 0 mm 3 mps 607 mmHg 60%
21:00 +11°C° 0 mm 3 mps 607 mmHg 65%
22:00 +10°C° 0 mm 3 mps 607 mmHg 71%
23:00 +9°C° 0 mm 2 mps 607 mmHg 77%

3 October, Saturday

Time Temperature Precipitation Wind Pressure Humidity
00:00 +9°C° 0 mm 2 mps 606 mmHg 79%
01:00 +8°C° 0 mm 2 mps 606 mmHg 82%
02:00 +8°C° 0 mm 2 mps 605 mmHg 84%
03:00 +7°C° 0 mm 2 mps 605 mmHg 85%
04:00 +7°C° 0 mm 2 mps 605 mmHg 85%
05:00 +7°C° 0 mm 2 mps 605 mmHg 86%
06:00 +9°C° 0 mm 2 mps 606 mmHg 75%
07:00 +12°C° 0 mm 2 mps 608 mmHg 65%
08:00 +13°C° 0 mm 3 mps 609 mmHg 55%
09:00 +16°C° 0 mm 3 mps 609 mmHg 47%
10:00 +19°C° 0 mm 4 mps 609 mmHg 38%
11:00 +21°C° 0 mm 4 mps 610 mmHg 30%
12:00 +22°C° 0 mm 4 mps 609 mmHg 29%
13:00 +23°C° 0 mm 4 mps 609 mmHg 28%
14:00 +25°C° 0 mm 4 mps 609 mmHg 27%
15:00 +22°C° 0 mm 4 mps 608 mmHg 32%
16:00 +21°C° 0 mm 4 mps 608 mmHg 38%
17:00 +19°C° 0 mm 3 mps 608 mmHg 43%
18:00 +18°C° 0 mm 3 mps 608 mmHg 53%
19:00 +16°C° 0 mm 3 mps 608 mmHg 63%
20:00 +13°C° 0 mm 3 mps 607 mmHg 73%
21:00 +13°C° 0 mm 3 mps 607 mmHg 78%
22:00 +13°C° 0 mm 2 mps 608 mmHg 83%
23:00 +12°C° 0 mm 2 mps 608 mmHg 87%
Show more